Retour au catalogue

STARLINK-36545

ActifCommunicationsVLEO
NORAD 67505·PAYLOAD·🇺🇸 United States

Lancé Jan 18, 2026 depuis Cape Canaveral Space Force Station

Loading…

Prochains Passages (prochaines 24 heures)

TLE

FraisSource: CelesTrak SupGP

Époque: Sep 15, 2026, 03:01 UTC

1 67505C 26012N   26258.12618056  .00040030  00000+0  14495-2 0  2585
2 67505  43.0027 324.2539 0001493 267.2888 222.7412 15.27566880    16

Suivez STARLINK-36545 en temps réel avec AllMySat

Download on the App Store